User: anonymous   Login
Location: Kalberh�ni
(46.4610°N, 7.2453°E)
Time: 18:51:31
(UTC+00:00)
Language:

NOSS 0 Rocket - Orbit

View from above orbital plane
View from above orbital plane
View from above satellite
View from above satellite

Ground track
Ground track

The orbit data is extracted from the following two-line orbital elements,

1 05679U 71110B   21270.79791007 -.00000020  00000-0  27751-4 0  9998
2 05679  69.9998  19.8793 0012021 174.9014 185.2211 13.85359849130647
Epoch (UTC): 27 September 2021 19:08:59
Eccentricity: 0.0012021
inclination: 69.9998°
perigee height: 936 km
apogee height: 954 km
right ascension of ascending node: 19.8793°
argument of perigee: 174.9014°
revolutions per day: 13.85359849
mean anomaly at epoch: 185.2211°
orbit number at epoch: 13064

The dashed part of the orbit path shows where the satellite is in the earth's shadow,  

DLR